Year,Month,Day,Hour,Minute,Value (Times are PST for temperature in C)
2010,08,12,00,00,13.80
2010,08,12,00,01,13.70
2010,08,12,00,02,13.70
2010,08,12,00,03,13.70
2010,08,12,00,04,13.60
2010,08,12,00,05,13.60
2010,08,12,00,06,13.50
2010,08,12,00,07,13.40
2010,08,12,00,08,13.40
2010,08,12,00,09,13.30
2010,08,12,00,10,13.30
2010,08,12,00,11,13.30
2010,08,12,00,12,13.30
2010,08,12,00,13,13.30
2010,08,12,00,14,13.20
2010,08,12,00,15,13.20
2010,08,12,00,16,13.10
2010,08,12,00,17,13.10
2010,08,12,00,18,13.00
2010,08,12,00,19,12.90
2010,08,12,00,20,12.90
2010,08,12,00,21,12.90
2010,08,12,00,22,12.90
2010,08,12,00,23,12.90
2010,08,12,00,24,12.90
2010,08,12,00,25,12.90
2010,08,12,00,26,12.90
2010,08,12,00,27,12.90
2010,08,12,00,28,12.90
2010,08,12,00,29,13.00
2010,08,12,00,30,13.00
2010,08,12,00,31,13.00
2010,08,12,00,32,13.10
2010,08,12,00,33,13.10
2010,08,12,00,34,13.10
2010,08,12,00,35,13.10
2010,08,12,00,36,13.10
2010,08,12,00,37,13.10
2010,08,12,00,38,13.10
2010,08,12,00,39,13.10
2010,08,12,00,40,13.10
2010,08,12,00,41,13.10
2010,08,12,00,42,13.00
2010,08,12,00,43,13.00
2010,08,12,00,44,13.00
2010,08,12,00,45,13.10
2010,08,12,00,46,13.10
2010,08,12,00,47,13.10
2010,08,12,00,48,13.10
2010,08,12,00,49,13.10
2010,08,12,00,50,13.20
2010,08,12,00,51,13.20
2010,08,12,00,52,13.20
2010,08,12,00,53,13.20
2010,08,12,00,54,13.20
2010,08,12,00,55,13.30
2010,08,12,00,56,13.30
2010,08,12,00,57,13.30
2010,08,12,00,58,13.30
2010,08,12,00,59,13.30
2010,08,12,01,00,13.30
2010,08,12,01,01,13.30
2010,08,12,01,02,13.30
2010,08,12,01,03,13.30
2010,08,12,01,04,13.20
2010,08,12,01,05,13.20
2010,08,12,01,06,13.20
2010,08,12,01,07,13.20
2010,08,12,01,08,13.20
2010,08,12,01,09,13.10
2010,08,12,01,10,13.10
2010,08,12,01,11,13.10
2010,08,12,01,12,13.10
2010,08,12,01,13,13.10
2010,08,12,01,14,13.10
2010,08,12,01,15,13.10
2010,08,12,01,16,13.10
2010,08,12,01,17,13.10
2010,08,12,01,18,13.00
2010,08,12,01,19,13.00
2010,08,12,01,20,13.00
2010,08,12,01,21,13.00
2010,08,12,01,22,13.00
2010,08,12,01,23,12.90
2010,08,12,01,24,12.90
2010,08,12,01,25,12.90
2010,08,12,01,26,12.90
2010,08,12,01,27,12.90
2010,08,12,01,28,12.90
2010,08,12,01,29,12.90
2010,08,12,01,30,12.80
2010,08,12,01,31,12.80
2010,08,12,01,32,12.80
2010,08,12,01,33,12.80
2010,08,12,01,34,12.80
2010,08,12,01,35,12.80
2010,08,12,01,36,12.80
2010,08,12,01,37,12.80
2010,08,12,01,38,12.80
2010,08,12,01,39,12.90
2010,08,12,01,40,12.90
2010,08,12,01,41,12.90
2010,08,12,01,42,12.90
2010,08,12,01,43,12.90
2010,08,12,01,44,12.90
2010,08,12,01,45,12.90
2010,08,12,01,46,12.90
2010,08,12,01,47,12.90
2010,08,12,01,48,12.90
2010,08,12,01,49,12.90
2010,08,12,01,50,12.90
2010,08,12,01,51,12.90
2010,08,12,01,52,12.90
2010,08,12,01,53,12.90
2010,08,12,01,54,12.90
2010,08,12,01,55,12.90
2010,08,12,01,56,12.90
2010,08,12,01,57,12.90
2010,08,12,01,58,12.90
2010,08,12,01,59,12.90
2010,08,12,02,00,12.90
2010,08,12,02,01,12.90
2010,08,12,02,02,12.90
2010,08,12,02,03,12.80
2010,08,12,02,04,12.80
2010,08,12,02,05,12.80
2010,08,12,02,06,12.80
2010,08,12,02,07,12.80
2010,08,12,02,08,12.80
2010,08,12,02,09,12.80
2010,08,12,02,10,12.80
2010,08,12,02,11,12.80
2010,08,12,02,12,12.80
2010,08,12,02,13,12.80
2010,08,12,02,14,12.80
2010,08,12,02,15,12.80
2010,08,12,02,16,12.80
2010,08,12,02,17,12.70
2010,08,12,02,18,12.70
2010,08,12,02,19,12.70
2010,08,12,02,20,12.70
2010,08,12,02,21,12.70
2010,08,12,02,22,12.70
2010,08,12,02,23,12.70
2010,08,12,02,24,12.70
2010,08,12,02,25,12.70
2010,08,12,02,26,12.70
2010,08,12,02,27,12.70
2010,08,12,02,28,12.70
2010,08,12,02,29,12.70
2010,08,12,02,30,12.70
2010,08,12,02,31,12.70
2010,08,12,02,32,12.70
2010,08,12,02,33,12.70
2010,08,12,02,34,12.70
2010,08,12,02,35,12.70
2010,08,12,02,36,12.70
2010,08,12,02,37,12.70
2010,08,12,02,38,12.70
2010,08,12,02,39,12.70
2010,08,12,02,40,12.70
2010,08,12,02,41,12.70
2010,08,12,02,42,12.70
2010,08,12,02,43,12.70
2010,08,12,02,44,12.70
2010,08,12,02,45,12.70
2010,08,12,02,46,12.70
2010,08,12,02,47,12.70
2010,08,12,02,48,12.70
2010,08,12,02,49,12.70
2010,08,12,02,50,12.70
2010,08,12,02,51,12.70
2010,08,12,02,52,12.70
2010,08,12,02,53,12.70
2010,08,12,02,54,12.70
2010,08,12,02,55,12.70
2010,08,12,02,56,12.70
2010,08,12,02,57,12.70
2010,08,12,02,58,12.80
2010,08,12,02,59,12.80
2010,08,12,03,00,12.80
2010,08,12,03,01,12.80
2010,08,12,03,02,12.90
2010,08,12,03,03,13.00
2010,08,12,03,04,13.00
2010,08,12,03,05,13.10
2010,08,12,03,06,13.10
2010,08,12,03,07,13.20
2010,08,12,03,08,13.20
2010,08,12,03,09,13.20
2010,08,12,03,10,13.20
2010,08,12,03,11,13.20
2010,08,12,03,12,13.20
2010,08,12,03,13,13.10
2010,08,12,03,14,13.10
2010,08,12,03,15,13.00
2010,08,12,03,16,12.90
2010,08,12,03,17,12.90
2010,08,12,03,18,12.90
2010,08,12,03,19,12.90
2010,08,12,03,20,12.80
2010,08,12,03,21,12.80
2010,08,12,03,22,12.80
2010,08,12,03,23,12.80
2010,08,12,03,24,12.80
2010,08,12,03,25,12.90
2010,08,12,03,26,12.90
2010,08,12,03,27,12.90
2010,08,12,03,28,12.90
2010,08,12,03,29,12.90
2010,08,12,03,30,12.90
2010,08,12,03,31,13.00
2010,08,12,03,32,12.90
2010,08,12,03,33,12.90
2010,08,12,03,34,12.90
2010,08,12,03,35,12.90
2010,08,12,03,36,13.00
2010,08,12,03,37,13.00
2010,08,12,03,38,13.00
2010,08,12,03,39,13.00
2010,08,12,03,40,13.00
2010,08,12,03,41,13.00
2010,08,12,03,42,13.00
2010,08,12,03,43,13.10
2010,08,12,03,44,13.00
2010,08,12,03,45,13.00
2010,08,12,03,46,13.00
2010,08,12,03,47,13.00
2010,08,12,03,48,12.90
2010,08,12,03,49,12.90
2010,08,12,03,50,13.00
2010,08,12,03,51,13.00
2010,08,12,03,52,13.00
2010,08,12,03,53,13.10
2010,08,12,03,54,13.10
2010,08,12,03,55,13.10
2010,08,12,03,56,13.10
2010,08,12,03,57,13.10
2010,08,12,03,58,13.00
2010,08,12,03,59,13.00
2010,08,12,04,00,13.00
2010,08,12,04,01,12.90
2010,08,12,04,02,12.90
2010,08,12,04,03,12.90
2010,08,12,04,04,12.80
2010,08,12,04,05,12.80
2010,08,12,04,06,12.80
2010,08,12,04,07,12.90
2010,08,12,04,08,12.90
2010,08,12,04,09,12.90
2010,08,12,04,10,12.90
2010,08,12,04,11,12.90
2010,08,12,04,12,12.90
2010,08,12,04,13,12.90
2010,08,12,04,14,12.90
2010,08,12,04,15,12.80
2010,08,12,04,16,12.80
2010,08,12,04,17,12.80
2010,08,12,04,18,12.80
2010,08,12,04,19,12.80
2010,08,12,04,20,12.80
2010,08,12,04,21,12.70
2010,08,12,04,22,12.70
2010,08,12,04,23,12.60
2010,08,12,04,24,12.60
2010,08,12,04,25,12.50
2010,08,12,04,26,12.40
2010,08,12,04,27,12.40
2010,08,12,04,28,12.30
2010,08,12,04,29,12.30
2010,08,12,04,30,12.20
2010,08,12,04,31,12.20
2010,08,12,04,32,12.20
2010,08,12,04,33,12.20
2010,08,12,04,34,12.20
2010,08,12,04,35,12.20
2010,08,12,04,36,12.10
2010,08,12,04,37,12.10
2010,08,12,04,38,12.10
2010,08,12,04,39,12.10
2010,08,12,04,40,12.00
2010,08,12,04,41,12.00
2010,08,12,04,42,12.00
2010,08,12,04,43,11.90
2010,08,12,04,44,11.90
2010,08,12,04,45,11.80
2010,08,12,04,46,11.80
2010,08,12,04,47,11.80
2010,08,12,04,48,11.80
2010,08,12,04,49,11.70
2010,08,12,04,50,11.80
2010,08,12,04,51,11.80
2010,08,12,04,52,11.80
2010,08,12,04,53,11.80
2010,08,12,04,54,11.80
2010,08,12,04,55,11.80
2010,08,12,04,56,11.80
2010,08,12,04,57,11.80
2010,08,12,04,58,11.80
2010,08,12,04,59,11.80
2010,08,12,05,00,11.80
2010,08,12,05,01,11.80
2010,08,12,05,02,11.70
2010,08,12,05,03,11.70
2010,08,12,05,04,11.70
2010,08,12,05,05,11.70
2010,08,12,05,06,11.70
2010,08,12,05,07,11.70
2010,08,12,05,08,11.60
2010,08,12,05,09,11.60
2010,08,12,05,10,11.50
2010,08,12,05,11,11.40
2010,08,12,05,12,11.40
2010,08,12,05,13,11.30
2010,08,12,05,14,11.20
2010,08,12,05,15,11.10
2010,08,12,05,16,11.10
2010,08,12,05,17,11.00
2010,08,12,05,18,11.00
2010,08,12,05,19,11.00
2010,08,12,05,20,11.00
2010,08,12,05,21,11.00
2010,08,12,05,22,11.00
2010,08,12,05,23,11.00
2010,08,12,05,24,10.90
2010,08,12,05,25,10.90
2010,08,12,05,26,10.90
2010,08,12,05,27,10.90
2010,08,12,05,28,10.90
2010,08,12,05,29,10.90
2010,08,12,05,30,10.90
2010,08,12,05,31,10.90
2010,08,12,05,32,10.80
2010,08,12,05,33,10.80
2010,08,12,05,34,10.80
2010,08,12,05,35,10.70
2010,08,12,05,36,10.70
2010,08,12,05,37,10.70
2010,08,12,05,38,10.70
2010,08,12,05,39,10.70
2010,08,12,05,40,10.80
2010,08,12,05,41,10.80
2010,08,12,05,42,10.80
2010,08,12,05,43,10.80
2010,08,12,05,44,10.90
2010,08,12,05,45,10.90
2010,08,12,05,46,10.90
2010,08,12,05,47,10.90
2010,08,12,05,48,11.00
2010,08,12,05,49,11.00
2010,08,12,05,50,11.00
2010,08,12,05,51,11.10
2010,08,12,05,52,11.10
2010,08,12,05,53,11.20
2010,08,12,05,54,11.20
2010,08,12,05,55,11.20
2010,08,12,05,56,11.30
2010,08,12,05,57,11.30
2010,08,12,05,58,11.30
2010,08,12,05,59,11.30
2010,08,12,06,00,11.30
2010,08,12,06,01,11.30
2010,08,12,06,02,11.30
2010,08,12,06,03,11.30
2010,08,12,06,04,11.30
2010,08,12,06,05,11.30
2010,08,12,06,06,11.30
2010,08,12,06,07,11.20
2010,08,12,06,08,11.20
2010,08,12,06,09,11.20
2010,08,12,06,10,11.20
2010,08,12,06,11,11.20
2010,08,12,06,12,11.20
2010,08,12,06,13,11.20
2010,08,12,06,14,11.20
2010,08,12,06,15,11.20
2010,08,12,06,16,11.20
2010,08,12,06,17,11.10
2010,08,12,06,18,11.20
2010,08,12,06,19,11.20
2010,08,12,06,20,11.20
2010,08,12,06,21,11.20
2010,08,12,06,22,11.20
2010,08,12,06,23,11.20
2010,08,12,06,24,11.20
2010,08,12,06,25,11.20
2010,08,12,06,26,11.20
2010,08,12,06,27,11.20
2010,08,12,06,28,11.20
2010,08,12,06,29,11.20
2010,08,12,06,30,11.30
2010,08,12,06,31,11.30
2010,08,12,06,32,11.30
2010,08,12,06,33,11.30
2010,08,12,06,34,11.30
2010,08,12,06,35,11.30
2010,08,12,06,36,11.30
2010,08,12,06,37,11.30
2010,08,12,06,38,11.30
2010,08,12,06,39,11.30
2010,08,12,06,40,11.30
2010,08,12,06,41,11.30
2010,08,12,06,42,11.30
2010,08,12,06,43,11.30
2010,08,12,06,44,11.30
2010,08,12,06,45,11.30
2010,08,12,06,46,11.30
2010,08,12,06,47,11.30
2010,08,12,06,48,11.30
2010,08,12,06,49,11.30
2010,08,12,06,50,11.30
2010,08,12,06,51,11.20
2010,08,12,06,52,11.20
2010,08,12,06,53,11.20
2010,08,12,06,54,11.20
2010,08,12,06,55,11.20
2010,08,12,06,56,11.10
2010,08,12,06,57,11.10
2010,08,12,06,58,11.10
2010,08,12,06,59,11.10
2010,08,12,07,00,11.10
2010,08,12,07,01,11.10
2010,08,12,07,02,11.10
2010,08,12,07,03,11.20
2010,08,12,07,04,11.20
2010,08,12,07,05,11.30
2010,08,12,07,06,11.30
2010,08,12,07,07,11.40
2010,08,12,07,08,11.40
2010,08,12,07,09,11.50
2010,08,12,07,10,11.50
2010,08,12,07,11,11.60
2010,08,12,07,12,11.70
2010,08,12,07,13,11.70
2010,08,12,07,14,11.80
2010,08,12,07,15,11.80
2010,08,12,07,16,11.90
2010,08,12,07,17,11.90
2010,08,12,07,18,12.00
2010,08,12,07,19,12.00
2010,08,12,07,20,12.00
2010,08,12,07,21,12.00
2010,08,12,07,22,12.10
2010,08,12,07,23,12.10
2010,08,12,07,24,12.10
2010,08,12,07,25,12.20
2010,08,12,07,26,12.20
2010,08,12,07,27,12.30
2010,08,12,07,28,12.30
2010,08,12,07,29,12.30
2010,08,12,07,30,12.30
2010,08,12,07,31,12.30
2010,08,12,07,32,12.30
2010,08,12,07,33,12.30
2010,08,12,07,34,12.40
2010,08,12,07,35,12.40
2010,08,12,07,36,12.40
2010,08,12,07,37,12.50
2010,08,12,07,38,12.50
2010,08,12,07,39,12.60
2010,08,12,07,40,12.60
2010,08,12,07,41,12.70
2010,08,12,07,42,12.70
2010,08,12,07,43,12.70
2010,08,12,07,44,12.80
2010,08,12,07,45,12.80
2010,08,12,07,46,12.90
2010,08,12,07,47,13.00
2010,08,12,07,48,13.10
2010,08,12,07,49,13.20
2010,08,12,07,50,13.30
2010,08,12,07,51,13.30
2010,08,12,07,52,13.40
2010,08,12,07,53,13.40
2010,08,12,07,54,13.50
2010,08,12,07,55,13.60
2010,08,12,07,56,13.60
2010,08,12,07,57,13.70
2010,08,12,07,58,13.70
2010,08,12,07,59,13.80
2010,08,12,08,00,13.80
2010,08,12,08,01,13.90
2010,08,12,08,02,13.90
2010,08,12,08,03,14.00
2010,08,12,08,04,14.00
2010,08,12,08,05,14.10
2010,08,12,08,06,14.10
2010,08,12,08,07,14.20
2010,08,12,08,08,14.30
2010,08,12,08,09,14.30
2010,08,12,08,10,14.40
2010,08,12,08,11,14.40
2010,08,12,08,12,14.50
2010,08,12,08,13,14.50
2010,08,12,08,14,14.60
2010,08,12,08,15,14.60
2010,08,12,08,16,14.60
2010,08,12,08,17,14.60
2010,08,12,08,18,14.60
2010,08,12,08,19,14.70
2010,08,12,08,20,14.70
2010,08,12,08,21,14.80
2010,08,12,08,22,14.80
2010,08,12,08,23,14.80
2010,08,12,08,24,14.90
2010,08,12,08,25,14.90
2010,08,12,08,26,14.90
2010,08,12,08,27,14.90
2010,08,12,08,28,14.90
2010,08,12,08,29,14.90
2010,08,12,08,30,15.00
2010,08,12,08,31,15.00
2010,08,12,08,32,15.10
2010,08,12,08,33,15.10
2010,08,12,08,34,15.10
2010,08,12,08,35,15.10
2010,08,12,08,36,15.10
2010,08,12,08,37,15.10
2010,08,12,08,38,15.10
2010,08,12,08,39,15.20
2010,08,12,08,40,15.10
2010,08,12,08,41,15.20
2010,08,12,08,42,15.30
2010,08,12,08,43,15.40
2010,08,12,08,44,15.60
2010,08,12,08,45,15.70
2010,08,12,08,46,15.70
2010,08,12,08,47,15.70
2010,08,12,08,48,15.70
2010,08,12,08,49,15.70
2010,08,12,08,50,15.70
2010,08,12,08,51,15.70
2010,08,12,08,52,15.70
2010,08,12,08,53,15.80
2010,08,12,08,54,15.90
2010,08,12,08,55,15.90
2010,08,12,08,56,15.90
2010,08,12,08,57,15.90
2010,08,12,08,58,15.90
2010,08,12,08,59,15.90
2010,08,12,09,00,15.80
2010,08,12,09,01,15.80
2010,08,12,09,02,15.80
2010,08,12,09,03,15.90
2010,08,12,09,04,15.90
2010,08,12,09,05,16.00
2010,08,12,09,06,16.10
2010,08,12,09,07,16.10
2010,08,12,09,08,16.10
2010,08,12,09,09,16.10
2010,08,12,09,10,16.20
2010,08,12,09,11,16.30
2010,08,12,09,12,16.30
2010,08,12,09,13,16.30
2010,08,12,09,14,16.40
2010,08,12,09,15,16.40
2010,08,12,09,16,16.40
2010,08,12,09,17,16.40
2010,08,12,09,18,16.50
2010,08,12,09,19,16.60
2010,08,12,09,20,16.60
2010,08,12,09,21,16.70
2010,08,12,09,22,16.60
2010,08,12,09,23,16.60
2010,08,12,09,24,16.50
2010,08,12,09,25,16.50
2010,08,12,09,26,16.50
2010,08,12,09,27,16.50
2010,08,12,09,28,16.60
2010,08,12,09,29,16.70
2010,08,12,09,30,16.70
2010,08,12,09,31,16.70
2010,08,12,09,32,16.70
2010,08,12,09,33,16.70
2010,08,12,09,34,16.70
2010,08,12,09,35,16.70
2010,08,12,09,36,16.70
2010,08,12,09,37,16.70
2010,08,12,09,38,16.70
2010,08,12,09,39,16.60
2010,08,12,09,40,16.60
2010,08,12,09,41,16.70
2010,08,12,09,42,16.70
2010,08,12,09,43,16.60
2010,08,12,09,44,16.60
2010,08,12,09,45,16.50
2010,08,12,09,46,16.50
2010,08,12,09,47,16.50
2010,08,12,09,48,16.60
2010,08,12,09,49,16.70
2010,08,12,09,50,16.70
2010,08,12,09,51,16.60
2010,08,12,09,52,16.60
2010,08,12,09,53,16.50
2010,08,12,09,54,16.40
2010,08,12,09,55,16.50
2010,08,12,09,56,16.60
2010,08,12,09,57,16.70
2010,08,12,09,58,16.80
2010,08,12,09,59,17.00
2010,08,12,10,00,17.10
2010,08,12,10,01,17.30
2010,08,12,10,02,17.40
2010,08,12,10,03,17.50
2010,08,12,10,04,17.60
2010,08,12,10,05,17.70
2010,08,12,10,06,17.70
2010,08,12,10,07,17.70
2010,08,12,10,08,17.80
2010,08,12,10,09,17.70
2010,08,12,10,10,17.70
2010,08,12,10,11,17.60
2010,08,12,10,12,17.50
2010,08,12,10,13,17.40
2010,08,12,10,14,17.50
2010,08,12,10,15,17.50
2010,08,12,10,16,17.60
2010,08,12,10,17,17.60
2010,08,12,10,18,17.60
2010,08,12,10,19,17.70
2010,08,12,10,20,17.70
2010,08,12,10,21,17.60
2010,08,12,10,22,17.60
2010,08,12,10,23,17.60
2010,08,12,10,24,17.70
2010,08,12,10,25,17.80
2010,08,12,10,26,17.90
2010,08,12,10,27,18.00
2010,08,12,10,28,18.00
2010,08,12,10,29,18.00
2010,08,12,10,30,18.10
2010,08,12,10,31,18.20
2010,08,12,10,32,18.30
2010,08,12,10,33,18.30
2010,08,12,10,34,18.30
2010,08,12,10,35,18.30
2010,08,12,10,36,18.30
2010,08,12,10,37,18.40
2010,08,12,10,38,18.40
2010,08,12,10,39,18.40
2010,08,12,10,40,18.30
2010,08,12,10,41,18.20
2010,08,12,10,42,18.10
2010,08,12,10,43,18.10
2010,08,12,10,44,18.10
2010,08,12,10,45,18.00
2010,08,12,10,46,18.00
2010,08,12,10,47,18.00
2010,08,12,10,48,17.90
2010,08,12,10,49,17.90
2010,08,12,10,50,17.80
2010,08,12,10,51,17.80
2010,08,12,10,52,17.80
2010,08,12,10,53,17.70
2010,08,12,10,54,17.70
2010,08,12,10,55,17.70
2010,08,12,10,56,17.70
2010,08,12,10,57,17.70
2010,08,12,10,58,17.80
2010,08,12,10,59,17.80
2010,08,12,11,00,17.80
2010,08,12,11,01,17.90
2010,08,12,11,02,17.90
2010,08,12,11,03,18.00
2010,08,12,11,04,18.00
2010,08,12,11,05,18.00
2010,08,12,11,06,18.10
2010,08,12,11,07,18.10
2010,08,12,11,08,18.20
2010,08,12,11,09,18.20
2010,08,12,11,10,18.20
2010,08,12,11,11,18.20
2010,08,12,11,12,18.30
2010,08,12,11,13,18.40
2010,08,12,11,14,18.40
2010,08,12,11,15,18.40
2010,08,12,11,16,18.40
2010,08,12,11,17,18.30
2010,08,12,11,18,18.30
2010,08,12,11,19,18.40
2010,08,12,11,20,18.50
2010,08,12,11,21,18.60
2010,08,12,11,22,18.50
2010,08,12,11,23,18.50
2010,08,12,11,24,18.40
2010,08,12,11,25,18.40
2010,08,12,11,26,18.40
2010,08,12,11,27,18.50
2010,08,12,11,28,18.60
2010,08,12,11,29,18.70
2010,08,12,11,30,18.70
2010,08,12,11,31,18.60
2010,08,12,11,32,18.60
2010,08,12,11,33,18.60
2010,08,12,11,34,18.60
2010,08,12,11,35,18.60
2010,08,12,11,36,18.70
2010,08,12,11,37,18.80
2010,08,12,11,38,18.80
2010,08,12,11,39,18.70
2010,08,12,11,40,18.80
2010,08,12,11,41,18.70
2010,08,12,11,42,18.80
2010,08,12,11,43,18.90
2010,08,12,11,44,19.00
2010,08,12,11,45,19.10
2010,08,12,11,46,19.00
2010,08,12,11,47,18.90
2010,08,12,11,48,18.80
2010,08,12,11,49,18.80
2010,08,12,11,50,18.70
2010,08,12,11,51,18.70
2010,08,12,11,52,18.60
2010,08,12,11,53,18.70
2010,08,12,11,54,18.90
2010,08,12,11,55,19.00
2010,08,12,11,56,19.10
2010,08,12,11,57,19.30
2010,08,12,11,58,19.50
2010,08,12,11,59,19.60
2010,08,12,12,00,19.70
2010,08,12,12,01,19.80
2010,08,12,12,02,19.90
2010,08,12,12,03,20.10
2010,08,12,12,04,20.10
2010,08,12,12,05,20.00
2010,08,12,12,06,19.90
2010,08,12,12,07,19.90
2010,08,12,12,08,19.80
2010,08,12,12,09,19.80
2010,08,12,12,10,19.70
2010,08,12,12,11,19.70
2010,08,12,12,12,19.80
2010,08,12,12,13,19.80
2010,08,12,12,14,19.80
2010,08,12,12,15,19.80
2010,08,12,12,16,19.80
2010,08,12,12,17,19.90
2010,08,12,12,18,19.90
2010,08,12,12,19,19.90
2010,08,12,12,20,20.00
2010,08,12,12,21,19.90
2010,08,12,12,22,19.70
2010,08,12,12,23,19.70
2010,08,12,12,24,19.70
2010,08,12,12,25,19.70
2010,08,12,12,26,19.80
2010,08,12,12,27,19.90
2010,08,12,12,28,20.00
2010,08,12,12,29,20.00
2010,08,12,12,30,20.00
2010,08,12,12,31,19.90
2010,08,12,12,32,19.90
2010,08,12,12,33,20.00
2010,08,12,12,34,19.90
2010,08,12,12,35,19.90
2010,08,12,12,36,19.70
2010,08,12,12,37,19.70
2010,08,12,12,38,19.80
2010,08,12,12,39,20.00
2010,08,12,12,40,20.20
2010,08,12,12,41,20.20
2010,08,12,12,42,20.40
2010,08,12,12,43,20.50
2010,08,12,12,44,20.60
2010,08,12,12,45,20.60
2010,08,12,12,46,20.50
2010,08,12,12,47,20.60
2010,08,12,12,48,20.50
2010,08,12,12,49,20.50
2010,08,12,12,50,20.50
2010,08,12,12,51,20.50
2010,08,12,12,52,20.50
2010,08,12,12,53,20.40
2010,08,12,12,54,20.40
2010,08,12,12,55,20.40
2010,08,12,12,56,20.40
2010,08,12,12,57,20.30
2010,08,12,12,58,20.10
2010,08,12,12,59,20.20
2010,08,12,13,00,20.40
2010,08,12,13,01,20.50
2010,08,12,13,02,20.50
2010,08,12,13,03,20.40
2010,08,12,13,04,20.50
2010,08,12,13,05,20.70
2010,08,12,13,06,20.70
2010,08,12,13,07,20.70
2010,08,12,13,08,20.80
2010,08,12,13,09,20.90
2010,08,12,13,10,20.80
2010,08,12,13,11,20.70
2010,08,12,13,12,20.70
2010,08,12,13,13,20.70
2010,08,12,13,14,20.80
2010,08,12,13,15,20.80
2010,08,12,13,16,20.80
2010,08,12,13,17,20.90
2010,08,12,13,18,20.80
2010,08,12,13,19,20.80
2010,08,12,13,20,20.70
2010,08,12,13,21,20.70
2010,08,12,13,22,20.60
2010,08,12,13,23,20.60
2010,08,12,13,24,20.50
2010,08,12,13,25,20.60
2010,08,12,13,26,20.60
2010,08,12,13,27,20.60
2010,08,12,13,28,20.70
2010,08,12,13,29,20.60
2010,08,12,13,30,20.60
2010,08,12,13,31,20.50
2010,08,12,13,32,20.50
2010,08,12,13,33,20.50
2010,08,12,13,34,20.60
2010,08,12,13,35,20.60
2010,08,12,13,36,20.80
2010,08,12,13,37,20.80
2010,08,12,13,38,20.80
2010,08,12,13,39,20.90
2010,08,12,13,40,20.90
2010,08,12,13,41,20.90
2010,08,12,13,42,20.90
2010,08,12,13,43,20.90
2010,08,12,13,44,21.00
2010,08,12,13,45,21.00
2010,08,12,13,46,21.00
2010,08,12,13,47,21.10
2010,08,12,13,48,21.10
2010,08,12,13,49,21.10
2010,08,12,13,50,21.10
2010,08,12,13,51,21.10
2010,08,12,13,52,21.00
2010,08,12,13,53,20.80
2010,08,12,13,54,20.70
2010,08,12,13,55,20.70
2010,08,12,13,56,20.60
2010,08,12,13,57,20.50
2010,08,12,13,58,20.60
2010,08,12,13,59,20.60
2010,08,12,14,00,20.60
2010,08,12,14,01,20.60
2010,08,12,14,02,20.60
2010,08,12,14,03,20.70
2010,08,12,14,04,20.90
2010,08,12,14,05,21.20
2010,08,12,14,06,21.50
2010,08,12,14,07,21.50
2010,08,12,14,08,21.30
2010,08,12,14,09,21.10
2010,08,12,14,10,21.10
2010,08,12,14,11,21.10
2010,08,12,14,12,21.10
2010,08,12,14,13,21.20
2010,08,12,14,14,21.20
2010,08,12,14,15,21.10
2010,08,12,14,16,20.90
2010,08,12,14,17,20.70
2010,08,12,14,18,20.60
2010,08,12,14,19,20.60
2010,08,12,14,20,20.60
2010,08,12,14,21,20.70
2010,08,12,14,22,20.70
2010,08,12,14,23,20.60
2010,08,12,14,24,20.70
2010,08,12,14,25,20.80
2010,08,12,14,26,20.70
2010,08,12,14,27,20.60
2010,08,12,14,28,20.50
2010,08,12,14,29,20.60
2010,08,12,14,30,20.70
2010,08,12,14,31,20.70
2010,08,12,14,32,20.90
2010,08,12,14,33,21.10
2010,08,12,14,34,21.30
2010,08,12,14,35,21.40
2010,08,12,14,36,21.40
2010,08,12,14,37,21.50
2010,08,12,14,38,21.50
2010,08,12,14,39,21.40
2010,08,12,14,40,21.40
2010,08,12,14,41,21.40
2010,08,12,14,42,21.50
2010,08,12,14,43,21.40
2010,08,12,14,44,21.30
2010,08,12,14,45,21.40
2010,08,12,14,46,21.50
2010,08,12,14,47,21.60
2010,08,12,14,48,21.40
2010,08,12,14,49,21.30
2010,08,12,14,50,21.20
2010,08,12,14,51,21.20
2010,08,12,14,52,21.20
2010,08,12,14,53,21.10
2010,08,12,14,54,20.90
2010,08,12,14,55,20.70
2010,08,12,14,56,20.60
2010,08,12,14,57,20.50
2010,08,12,14,58,20.40
2010,08,12,14,59,20.50
2010,08,12,15,00,20.70
2010,08,12,15,01,20.80
2010,08,12,15,02,20.90
2010,08,12,15,03,20.90
2010,08,12,15,04,20.80
2010,08,12,15,05,20.70
2010,08,12,15,06,20.80
2010,08,12,15,07,20.70
2010,08,12,15,08,20.80
2010,08,12,15,09,21.10
2010,08,12,15,10,21.30
2010,08,12,15,11,21.40
2010,08,12,15,12,21.40
2010,08,12,15,13,21.40
2010,08,12,15,14,21.50
2010,08,12,15,15,21.50
2010,08,12,15,16,21.50
2010,08,12,15,17,21.30
2010,08,12,15,18,21.10
2010,08,12,15,19,20.90
2010,08,12,15,20,20.90
2010,08,12,15,21,20.90
2010,08,12,15,22,20.90
2010,08,12,15,23,20.90
2010,08,12,15,24,20.90
2010,08,12,15,25,20.80
2010,08,12,15,26,20.80
2010,08,12,15,27,20.80
2010,08,12,15,28,20.80
2010,08,12,15,29,21.00
2010,08,12,15,30,21.10
2010,08,12,15,31,21.20
2010,08,12,15,32,21.30
2010,08,12,15,33,21.30
2010,08,12,15,34,21.20
2010,08,12,15,35,21.20
2010,08,12,15,36,21.10
2010,08,12,15,37,21.10
2010,08,12,15,38,21.10
2010,08,12,15,39,21.30
2010,08,12,15,40,21.40
2010,08,12,15,41,21.40
2010,08,12,15,42,21.50
2010,08,12,15,43,21.50
2010,08,12,15,44,21.60
2010,08,12,15,45,21.70
2010,08,12,15,46,21.70
2010,08,12,15,47,21.60
2010,08,12,15,48,21.60
2010,08,12,15,49,21.60
2010,08,12,15,50,21.60
2010,08,12,15,51,21.60
2010,08,12,15,52,21.60
2010,08,12,15,53,21.70
2010,08,12,15,54,21.70
2010,08,12,15,55,21.70
2010,08,12,15,56,21.70
2010,08,12,15,57,21.70
2010,08,12,15,58,21.80
2010,08,12,15,59,21.90
2010,08,12,16,00,22.00
2010,08,12,16,01,22.00
2010,08,12,16,02,22.00
2010,08,12,16,03,22.10
2010,08,12,16,04,22.20
2010,08,12,16,05,22.30
2010,08,12,16,06,22.40
2010,08,12,16,07,22.50
2010,08,12,16,08,22.60
2010,08,12,16,09,22.70
2010,08,12,16,10,22.60
2010,08,12,16,11,22.50
2010,08,12,16,12,22.40
2010,08,12,16,13,22.30
2010,08,12,16,14,22.20
2010,08,12,16,15,22.20
2010,08,12,16,16,22.10
2010,08,12,16,17,22.20
2010,08,12,16,18,22.20
2010,08,12,16,19,22.10
2010,08,12,16,20,22.00
2010,08,12,16,21,22.00
2010,08,12,16,22,22.00
2010,08,12,16,23,22.00
2010,08,12,16,24,22.10
2010,08,12,16,25,22.10
2010,08,12,16,26,22.00
2010,08,12,16,27,21.90
2010,08,12,16,28,21.90
2010,08,12,16,29,22.00
2010,08,12,16,30,22.20
2010,08,12,16,31,22.30
2010,08,12,16,32,22.40
2010,08,12,16,33,22.30
2010,08,12,16,34,22.30
2010,08,12,16,35,22.20
2010,08,12,16,36,22.30
2010,08,12,16,37,22.20
2010,08,12,16,38,22.30
2010,08,12,16,39,22.30
2010,08,12,16,40,22.30
2010,08,12,16,41,22.20
2010,08,12,16,42,22.20
2010,08,12,16,43,22.20
2010,08,12,16,44,22.50
2010,08,12,16,45,22.60
2010,08,12,16,46,22.60
2010,08,12,16,47,22.40
2010,08,12,16,48,22.30
2010,08,12,16,49,22.30
2010,08,12,16,50,22.20
2010,08,12,16,51,22.30
2010,08,12,16,52,22.20
2010,08,12,16,53,22.10
2010,08,12,16,54,22.10
2010,08,12,16,55,22.00
2010,08,12,16,56,21.90
2010,08,12,16,57,21.90
2010,08,12,16,58,21.90
2010,08,12,16,59,22.00
2010,08,12,17,00,22.10
2010,08,12,17,01,22.10
2010,08,12,17,02,22.10
2010,08,12,17,03,22.00
2010,08,12,17,04,21.90
2010,08,12,17,05,22.00
2010,08,12,17,06,22.00
2010,08,12,17,07,22.10
2010,08,12,17,08,22.10
2010,08,12,17,09,22.20
2010,08,12,17,10,22.20
2010,08,12,17,11,22.20
2010,08,12,17,12,22.10
2010,08,12,17,13,22.00
2010,08,12,17,14,22.00
2010,08,12,17,15,22.00
2010,08,12,17,16,22.00
2010,08,12,17,17,22.00
2010,08,12,17,18,22.00
2010,08,12,17,19,22.10